Wind_Speed
14 13 13 13 13 13 15 16 14 13 12 10 9 8 7 7 6 6 6 6 6 7 6 6 6 7 8 8 8 8 7 6 6 4 3 2 1 1 0 1 2 2 3 4 4 4 5 5 5
14 14 14 14 14 14 17 17 15 13 12 10 10 9 9 8 8 8 7 7 7 7 8 8 7 8 9 9 9 10 9 8 8 6 5 4 3 2 2 1 1 1 2 3 3 3 4 4 4
15 15 14 15 16 16 19 17 15 13 12 11 11 10 10 9 9 9 9 9 9 8 8 8 8 9 9 10 11 11 11 10 9 8 7 6 6 5 4 3 3 3 3 3 3 4 4 4 4
15 15 15 16 18 20 20 17 15 13 13 12 11 11 11 11 11 11 11 11 11 10 9 9 9 10 11 12 12 13 12 11 11 10 9 8 8 7 6 5 5 4 4 4 4 5 5 5 5
16 15 15 17 19 20 19 18 16 14 13 12 12 11 11 12 12 13 12 12 11 10 9 9 10 11 11 12 13 14 13 12 12 11 11 10 10 9 8 7 7 6 6 6 6 6 6 6 6
16 15 16 18 20 20 20 18 16 15 13 13 12 13 13 12 13 13 13 13 11 11 10 11 11 12 13 13 14 15 15 14 14 13 12 12 11 11 10 9 9 8 8 8 8 8 7 7 7
16 16 18 20 21 21 20 18 17 15 14 13 13 13 13 13 13 14 13 13 12 11 12 12 13 14 15 15 16 17 17 17 16 15 14 14 14 13 12 11 11 11 10 10 10 9 9 9 9
17 17 19 21 22 22 20 18 17 16 16 15 14 14 14 14 13 14 14 14 13 12 12 13 14 15 16 17 17 18 18 18 18 17 16 16 16 16 15 14 14 13 13 12 11 11 11 10 10
17 18 20 22 22 21 20 19 17 16 16 16 15 15 15 14 14 13 13 13 13 12 11 13 14 15 16 18 19 19 19 20 19 18 18 18 18 17 17 16 16 15 14 14 14 13 13 13 13
17 19 21 21 21 20 19 19 18 17 17 16 16 16 15 14 14 13 13 13 13 13 12 12 13 15 17 19 21 21 20 20 20 20 20 20 20 19 19 18 17 16 16 16 16 16 15 15 15
18 20 19 20 20 19 19 19 19 18 18 18 17 17 16 15 15 14 14 14 13 12 12 13 13 15 18 19 20 21 21 20 21 21 21 21 21 20 20 19 18 18 18 18 18 17 17 17 16
18 19 19 19 19 19 19 19 20 19 19 18 18 18 17 16 15 15 15 14 14 13 13 13 14 16 18 19 20 21 21 22 23 22 22 22 22 21 21 20 20 20 20 20 19 19 19 19 18
18 19 19 19 19 19 20 20 20 20 19 19 19 19 18 17 17 16 15 15 15 15 15 15 15 16 17 18 20 22 22 23 23 22 22 23 22 23 23 23 22 21 21 21 22 21 21 21 20
18 18 19 19 19 19 20 20 20 21 20 20 20 19 19 18 17 17 17 16 16 16 16 16 16 17 18 20 21 23 24 24 24 23 24 24 24 23 24 24 24 23 23 23 23 23 22 22 22
18 18 19 19 19 20 20 21 22 21 21 21 21 21 20 19 19 18 18 18 17 16 17 18 17 18 19 19 20 23 24 24 24 24 24 24 25 25 25 25 25 24 24 25 25 24 23 23 23
17 17 19 20 20 20 20 21 22 21 21 21 21 21 21 20 19 18 18 18 18 17 18 18 18 18 20 21 21 23 23 24 24 25 25 25 26 26 26 25 26 26 26 26 25 25 24 24 24
16 17 18 20 20 20 20 21 21 20 21 21 21 21 20 20 19 19 18 18 18 18 19 19 19 19 19 21 21 22 22 24 24 25 25 26 26 26 26 26 27 28 27 26 25 25 25 24 24
16 17 18 19 19 19 20 21 21 20 20 20 20 20 20 20 20 19 19 19 18 19 19 19 19 19 20 20 21 21 22 24 25 25 25 26 27 27 27 26 26 26 26 26 26 26 25 25 25
17 17 18 19 19 18 19 20 20 20 20 20 20 20 20 21 20 20 19 19 19 19 19 19 19 19 20 20 20 21 21 23 24 25 25 26 26 27 27 27 27 26 27 26 26 27 26 26 26
16 17 18 19 19 18 18 19 20 20 19 19 19 19 20 21 21 20 19 19 19 19 19 19 19 19 18 19 20 21 21 22 23 24 25 26 27 27 26 26 26 26 26 25 26 26 27 28 28
15 16 18 18 18 18 18 19 18 18 18 18 19 19 19 20 20 19 20 20 19 19 19 19 19 19 19 19 20 21 22 22 22 23 24 24 25 26 26 26 26 26 26 25 25 26 27 28 28
15 16 17 17 16 17 17 16 18 17 17 17 17 18 19 20 20 20 20 19 19 19 19 19 19 18 18 19 20 20 20 21 22 22 23 23 24 24 24 25 26 26 26 26 26 26 27 28 28
16 15 16 16 16 16 16 15 17 17 17 16 17 18 20 20 20 20 20 19 19 19 19 19 19 19 19 20 20 21 22 22 22 23 24 24 25 25 25 26 26 26 26 26 27 27 28 28 28
15 15 15 15 14 15 15 14 16 17 16 17 17 18 20 20 20 20 20 20 20 20 20 20 20 20 20 21 22 22 22 23 23 24 25 25 26 27 27 27 27 27 27 27 27 28 28 28 28
14 13 12 12 13 14 16 15 16 16 15 16 17 19 20 20 21 21 21 21 21 21 21 21 21 21 21 22 22 22 23 24 25 26 25 26 26 26 27 27 27 27 27 28 28 28 28 28 28
14 14 13 13 13 14 17 16 15 15 15 15 16 18 19 19 20 20 21 20 20 20 20 21 21 21 22 22 23 23 24 25 25 26 26 26 26 26 26 26 27 27 28 28 28 29 29 28 28
14 14 15 14 14 14 15 16 16 16 16 16 17 18 18 19 19 20 20 20 21 21 20 20 21 21 22 23 23 24 24 25 25 25 25 25 26 26 26 27 27 28 28 28 28 28 28 28 28
14 14 15 13 13 13 14 15 16 16 17 17 17 17 18 18 19 20 20 20 20 20 20 21 21 22 23 24 24 24 24 25 25 25 25 26 26 27 27 27 27 27 27 27 28 28 28 28 29
14 15 14 13 14 13 14 15 16 16 16 17 17 17 18 19 20 21 21 21 21 21 22 23 23 23 23 24 24 24 25 25 25 26 26 26 26 26 26 27 27 27 27 27 27 27 27 27 28
15 15 14 14 15 14 14 16 17 17 17 16 17 18 19 19 20 21 22 22 21 22 22 23 24 24 24 25 25 25 25 25 26 26 26 26 26 26 26 26 26 26 26 26 26 26 26 27 26
Wind_Direction
241 240 239 238 239 240 240 248 250 253 253 254 255 258 262 264 265 265 274 278 277 265 250 231 229 233 232 232 237 235 234 232 231 231 229 229 227 218 116 43 38 39 30 24 20 20 21 20 19
240 238 235 235 233 236 243 247 248 250 254 253 255 261 264 268 273 273 276 281 287 281 267 248 239 240 238 236 236 234 233 234 233 233 234 233 234 237 243 268 307 332 345 352 353 353 359 4 6
238 235 233 232 229 226 241 246 248 249 250 250 256 262 267 275 279 285 287 290 293 290 279 262 249 246 244 240 239 237 236 237 237 237 238 236 236 239 244 254 265 277 295 307 317 321 328 338 343
235 233 231 230 231 235 243 247 249 247 248 251 256 261 268 277 287 293 296 294 296 290 280 269 258 248 245 241 240 239 240 240 239 238 238 239 240 242 244 250 257 264 270 280 290 301 306 310 321
231 230 229 228 233 239 244 246 246 246 247 251 255 262 272 281 289 294 294 294 291 283 272 267 260 252 246 244 241 237 238 238 240 240 240 242 245 247 245 247 251 256 262 273 278 287 293 294 301
228 227 224 227 235 240 243 244 245 246 245 250 257 265 274 283 290 292 293 293 289 282 272 268 264 256 249 247 240 234 235 237 237 240 242 245 248 250 250 250 251 254 260 267 273 277 283 284 288
226 223 222 228 235 239 243 244 244 246 247 251 257 264 274 281 288 292 293 295 291 283 275 267 262 259 250 247 242 236 235 237 235 237 241 243 245 248 250 251 252 255 259 264 269 273 277 278 281
225 224 225 230 234 239 242 244 244 244 247 253 256 262 273 282 289 292 293 293 289 281 276 272 264 257 250 246 242 236 236 238 236 237 241 243 245 248 250 251 253 256 259 262 265 270 274 275 279
225 224 226 230 234 239 241 244 245 247 248 251 256 263 274 282 288 292 295 291 283 278 277 275 267 255 249 245 242 239 239 239 238 239 241 243 246 248 251 252 255 258 261 262 266 268 271 273 276
225 224 230 233 235 238 240 243 246 248 251 253 260 268 274 283 286 288 292 288 282 275 274 271 267 255 248 243 238 239 240 239 239 241 243 245 247 249 252 254 256 259 262 263 266 267 269 270 272
227 230 233 234 237 239 241 243 245 248 253 257 263 270 276 280 282 286 290 287 283 279 274 268 263 253 246 243 242 241 241 242 243 243 246 247 249 250 252 255 257 260 262 264 266 267 267 269 271
231 233 234 236 239 240 241 244 246 249 254 260 265 270 276 280 282 286 291 290 286 279 275 274 266 254 249 245 245 243 244 246 247 248 248 249 251 252 254 256 257 260 263 265 266 267 267 271 272
231 234 235 238 239 240 243 245 249 253 257 261 267 272 278 280 285 288 289 289 286 280 275 270 264 260 254 250 248 244 243 247 247 245 246 250 252 253 256 259 262 263 265 267 268 269 270 270 271
231 234 236 238 240 242 245 247 250 254 259 262 267 272 277 283 289 289 285 283 283 281 275 270 267 262 260 256 252 250 249 248 247 248 248 250 251 254 258 261 263 265 266 267 268 269 271 270 270
230 233 236 239 241 243 247 249 252 255 259 263 268 274 280 286 288 289 283 279 279 279 276 274 270 265 263 259 256 253 248 245 249 249 249 251 254 257 261 261 263 266 267 267 269 270 270 270 269
229 232 238 242 243 245 246 250 253 256 260 264 269 274 280 286 288 287 286 284 282 279 277 277 273 267 263 261 260 257 253 253 250 248 251 253 255 258 261 262 264 267 269 269 270 269 270 271 271
227 228 235 242 244 245 245 248 255 257 260 264 269 274 279 283 286 286 285 286 285 281 279 279 273 270 267 263 262 257 255 254 252 250 250 252 255 258 261 265 267 267 267 270 271 269 270 271 272
226 229 235 241 243 244 245 249 254 256 259 263 268 273 277 280 282 283 283 284 283 281 280 280 273 270 270 266 262 260 256 255 255 253 253 254 257 259 261 263 265 265 268 269 270 270 271 273 274
225 230 236 241 244 243 245 249 255 260 262 264 268 271 274 277 279 280 281 281 280 280 280 279 274 270 268 264 263 260 259 258 259 257 255 256 258 259 261 262 264 267 268 267 268 271 272 274 275
225 229 238 243 245 246 249 253 258 263 263 264 266 269 272 275 277 278 280 279 278 279 279 279 275 272 269 266 266 263 261 260 261 259 257 257 257 260 263 266 267 269 269 269 270 271 272 273 274
227 230 237 244 248 250 254 257 260 263 263 264 266 268 270 274 276 276 277 275 275 277 279 282 278 273 273 269 270 270 266 261 260 260 260 261 263 263 265 268 269 271 270 271 271 272 273 274 274
229 232 238 244 246 252 254 258 263 261 260 262 262 263 267 272 277 278 277 273 271 276 278 281 278 273 274 274 275 273 269 265 264 263 264 265 267 268 270 272 272 272 271 271 272 273 274 274 275
228 234 239 243 245 249 253 250 259 260 260 260 260 262 265 271 276 279 276 273 271 275 277 278 277 275 275 273 275 273 270 268 267 267 268 269 270 271 272 273 272 272 271 272 273 274 274 275 275
231 234 239 244 247 251 252 251 257 261 260 258 258 262 267 271 274 277 278 276 275 278 277 276 276 275 276 276 275 271 270 270 270 271 272 272 272 273 273 274 274 273 272 272 273 274 274 275 275
229 230 239 246 249 252 256 255 255 259 260 260 262 265 267 270 273 276 279 280 278 278 277 276 276 274 274 275 275 272 270 271 271 274 275 274 274 273 272 273 273 273 272 272 273 273 274 275 274
232 228 230 238 247 252 262 259 258 261 261 264 267 269 270 271 275 278 278 279 277 276 277 277 275 274 273 274 276 275 272 272 272 273 274 275 276 275 275 274 274 274 273 272 273 273 273 273 273
231 230 231 240 245 252 258 261 262 263 264 268 271 273 274 276 276 277 278 278 277 277 278 278 277 275 273 274 276 277 277 277 276 275 275 275 276 276 276 276 276 275 273 272 272 272 271 271 271
231 236 241 243 251 255 263 264 266 265 268 270 273 276 276 276 277 279 278 278 277 276 278 279 277 276 274 275 277 277 277 278 279 279 278 277 276 277 277 277 276 275 274 273 272 272 271 270 270
238 241 244 244 246 250 261 265 265 267 271 271 271 275 279 278 277 278 279 279 280 279 281 280 278 278 277 275 276 278 277 278 280 280 280 278 278 278 278 277 276 275 275 274 272 271 271 271 270
239 242 243 248 255 253 257 267 268 268 270 272 274 278 279 279 278 278 279 281 280 280 280 280 279 278 278 277 277 277 279 279 280 280 280 280 279 278 277 278 277 276 275 273 272 271 271 270 269
Height
5899 5901 5902 5904 5906 5907 5907 5907 5908 5909 5910 5911 5912 5912 5913 5913 5915 5917 5914 5913 5913 5913 5913 5913 5913 5914 5914 5914 5914 5915 5915 5915 5915 5915 5915 5915 5916 5916 5916 5916 5916 5916 5916 5916 5916 5915 5915 5914 5914
5897 5898 5900 5902 5904 5905 5904 5904 5906 5907 5908 5909 5910 5911 5911 5911 5912 5912 5912 5911 5911 5911 5911 5912 5912 5912 5912 5913 5913 5913 5913 5914 5914 5914 5914 5914 5914 5915 5915 5916 5916 5916 5916 5915 5915 5915 5914 5914 5913
5894 5895 5898 5900 5901 5903 5901 5902 5904 5905 5906 5907 5908 5909 5909 5909 5910 5910 5910 5910 5910 5909 5909 5909 5910 5910 5911 5911 5911 5912 5912 5912 5912 5912 5913 5913 5913 5913 5914 5914 5915 5915 5915 5914 5914 5914 5913 5913 5912
5891 5893 5896 5898 5897 5897 5898 5900 5901 5903 5904 5906 5906 5907 5907 5907 5907 5908 5907 5907 5907 5906 5906 5907 5907 5907 5908 5908 5909 5909 5910 5910 5910 5911 5911 5912 5912 5912 5912 5913 5913 5913 5913 5913 5913 5912 5912 5912 5911
5888 5891 5893 5894 5894 5894 5895 5897 5899 5901 5903 5904 5905 5905 5905 5905 5905 5905 5905 5904 5904 5903 5903 5904 5904 5904 5905 5905 5906 5906 5907 5908 5909 5909 5909 5910 5910 5911 5911 5911 5911 5911 5911 5911 5911 5911 5910 5910 5910
5886 5888 5891 5891 5891 5892 5893 5895 5897 5899 5900 5901 5902 5903 5903 5903 5903 5903 5902 5902 5901 5901 5901 5901 5901 5901 5902 5902 5903 5903 5904 5905 5906 5906 5907 5907 5908 5909 5909 5909 5909 5909 5909 5909 5909 5909 5908 5908 5908
5884 5885 5887 5888 5888 5889 5891 5893 5895 5897 5898 5899 5900 5901 5900 5901 5900 5900 5899 5899 5898 5898 5898 5898 5897 5898 5898 5899 5899 5900 5901 5902 5902 5903 5904 5905 5905 5906 5906 5906 5906 5907 5907 5907 5907 5907 5906 5906 5906
5879 5883 5883 5884 5885 5887 5889 5890 5893 5894 5896 5897 5898 5898 5898 5898 5898 5897 5897 5896 5895 5895 5894 5894 5894 5894 5894 5895 5896 5897 5897 5898 5899 5900 5900 5901 5902 5902 5903 5903 5904 5904 5904 5904 5904 5904 5904 5904 5903
5876 5880 5880 5881 5883 5884 5886 5888 5890 5892 5893 5894 5895 5896 5896 5896 5895 5895 5894 5893 5892 5892 5891 5891 5890 5890 5890 5891 5892 5892 5893 5894 5895 5895 5896 5897 5898 5899 5900 5900 5901 5901 5901 5901 5901 5901 5901 5901 5900
5874 5876 5876 5878 5880 5882 5884 5886 5888 5889 5891 5892 5892 5893 5893 5893 5893 5892 5891 5890 5889 5888 5888 5887 5887 5887 5887 5887 5887 5888 5888 5888 5890 5891 5892 5893 5894 5895 5896 5897 5897 5897 5897 5897 5898 5897 5897 5897 5897
5870 5872 5873 5875 5877 5879 5881 5883 5885 5887 5888 5889 5889 5890 5890 5890 5889 5889 5888 5887 5886 5885 5884 5884 5884 5883 5883 5883 5883 5884 5884 5885 5886 5886 5887 5889 5890 5891 5892 5892 5893 5893 5893 5894 5894 5893 5894 5893 5893
5867 5869 5870 5872 5875 5877 5879 5880 5882 5884 5885 5886 5886 5887 5887 5887 5886 5886 5885 5884 5883 5882 5881 5881 5880 5879 5878 5878 5878 5879 5880 5881 5882 5882 5883 5884 5885 5886 5887 5888 5889 5889 5889 5890 5890 5890 5890 5890 5889
5864 5866 5868 5870 5872 5874 5876 5878 5879 5880 5882 5883 5883 5884 5884 5883 5883 5882 5881 5880 5880 5879 5878 5877 5876 5874 5874 5874 5875 5875 5876 5876 5877 5877 5879 5880 5881 5882 5883 5883 5884 5885 5885 5885 5885 5885 5885 5885 5885
5862 5863 5865 5868 5869 5871 5873 5875 5876 5877 5878 5880 5880 5880 5880 5880 5880 5879 5878 5877 5876 5875 5874 5873 5872 5871 5870 5870 5870 5870 5871 5871 5872 5873 5875 5876 5876 5877 5878 5879 5880 5880 5880 5881 5881 5881 5881 5881 5880
5859 5861 5863 5865 5867 5868 5871 5872 5873 5874 5875 5876 5876 5877 5877 5877 5876 5875 5874 5873 5872 5872 5871 5869 5868 5867 5866 5866 5866 5866 5866 5866 5868 5869 5870 5871 5872 5873 5874 5874 5875 5875 5875 5875 5876 5876 5876 5875 5875
5857 5859 5861 5862 5863 5865 5870 5870 5869 5870 5871 5872 5873 5873 5873 5873 5872 5872 5871 5870 5869 5868 5867 5866 5864 5864 5863 5862 5862 5861 5861 5862 5863 5864 5865 5866 5867 5868 5869 5869 5870 5870 5870 5870 5870 5870 5870 5870 5870
5855 5857 5858 5859 5860 5862 5865 5866 5866 5867 5868 5869 5869 5869 5869 5869 5869 5868 5867 5866 5865 5864 5863 5862 5861 5860 5859 5858 5858 5857 5857 5858 5858 5859 5860 5861 5862 5863 5864 5864 5865 5865 5865 5865 5865 5865 5865 5864 5864
5853 5854 5855 5856 5857 5859 5861 5862 5862 5863 5864 5865 5865 5865 5866 5865 5865 5864 5863 5862 5861 5860 5859 5858 5857 5856 5855 5854 5853 5853 5853 5854 5854 5855 5855 5856 5857 5858 5858 5859 5859 5859 5859 5859 5859 5859 5859 5859 5858
5849 5851 5852 5852 5854 5856 5857 5858 5859 5860 5860 5861 5861 5861 5861 5861 5860 5859 5858 5857 5856 5855 5855 5853 5852 5851 5850 5850 5849 5849 5849 5849 5850 5850 5850 5851 5852 5852 5853 5853 5853 5853 5853 5853 5853 5853 5853 5853 5853
5846 5847 5848 5849 5850 5852 5854 5855 5855 5856 5856 5857 5857 5857 5857 5856 5856 5855 5854 5853 5852 5851 5850 5849 5848 5847 5846 5845 5845 5845 5844 5844 5844 5845 5845 5845 5846 5846 5847 5847 5847 5848 5847 5847 5847 5847 5847 5847 5846
5842 5845 5845 5846 5847 5849 5850 5851 5851 5852 5853 5853 5853 5853 5852 5852 5851 5851 5849 5849 5848 5847 5846 5845 5843 5842 5842 5841 5840 5840 5839 5839 5840 5840 5840 5840 5840 5841 5841 5841 5841 5841 5841 5841 5841 5841 5840 5840 5840
5839 5841 5842 5843 5845 5846 5848 5849 5848 5848 5849 5849 5849 5849 5848 5848 5847 5846 5845 5844 5843 5842 5841 5840 5839 5838 5837 5836 5836 5835 5835 5835 5834 5834 5834 5835 5835 5835 5835 5835 5835 5835 5835 5834 5834 5834 5834 5834 5833
5836 5837 5839 5840 5842 5843 5844 5846 5846 5844 5845 5845 5845 5844 5844 5843 5843 5841 5840 5839 5838 5838 5837 5836 5834 5833 5833 5832 5831 5830 5830 5830 5829 5829 5829 5829 5829 5829 5829 5829 5828 5828 5828 5827 5827 5827 5827 5827 5826
5832 5835 5836 5837 5839 5841 5841 5843 5843 5841 5841 5841 5840 5840 5840 5839 5838 5837 5836 5834 5834 5833 5832 5831 5830 5829 5828 5827 5826 5825 5824 5824 5824 5823 5823 5823 5822 5822 5822 5822 5822 5821 5821 5820 5820 5820 5820 5819 5819
5830 5833 5836 5837 5837 5839 5837 5838 5839 5837 5837 5837 5836 5836 5835 5835 5834 5832 5831 5830 5829 5828 5827 5826 5825 5824 5823 5822 5821 5820 5819 5818 5818 5817 5816 5816 5816 5815 5815 5815 5814 5814 5813 5813 5813 5813 5812 5812 5812
5827 5830 5834 5836 5836 5836 5833 5833 5834 5833 5833 5833 5832 5831 5830 5830 5829 5827 5826 5825 5823 5822 5822 5820 5820 5819 5818 5817 5815 5814 5813 5812 5811 5810 5810 5809 5809 5808 5808 5807 5807 5806 5806 5805 5805 5805 5805 5805 5804
5823 5826 5829 5830 5831 5831 5831 5830 5829 5829 5829 5828 5828 5827 5826 5825 5824 5822 5821 5820 5818 5817 5816 5815 5814 5813 5812 5811 5810 5808 5807 5806 5804 5803 5802 5802 5801 5801 5800 5799 5799 5798 5798 5798 5798 5797 5797 5797 5797
5821 5822 5824 5826 5827 5828 5827 5826 5826 5825 5824 5824 5823 5822 5821 5820 5819 5817 5816 5815 5813 5812 5811 5810 5809 5808 5806 5805 5803 5802 5801 5800 5798 5797 5796 5795 5794 5793 5792 5792 5791 5791 5790 5790 5790 5790 5789 5789 5789
5817 5819 5820 5822 5823 5824 5824 5825 5821 5820 5820 5819 5818 5817 5817 5815 5814 5812 5811 5809 5808 5807 5805 5804 5803 5801 5800 5799 5797 5796 5795 5793 5792 5791 5789 5788 5787 5786 5785 5784 5784 5783 5783 5782 5782 5782 5782 5782 5782
5813 5814 5816 5818 5818 5818 5820 5821 5816 5816 5815 5815 5814 5812 5811 5810 5808 5807 5805 5804 5802 5801 5799 5798 5796 5795 5793 5792 5791 5790 5788 5787 5785 5784 5782 5781 5780 5779 5778 5777 5777 5776 5775 5775 5775 5775 5775 5774 5774